This demonstration page uses our WeatherBlox Daily Observations layout. Learn more.

Left ArrowRight Arrow

39.08367, -84.50855

Hourly Observations for January 15, 2015

Temp ( °F °C ) Dew Point ( °F °C ) Humidity (%) Winds ( mph kmh ) Pressure ( in mb ) Visibility ( mi km ) Precip ( " mm )
12:53 am 00:53 Cloudy 23 -5 19 -7.2 85 85 Calm 30.3 1026 9 14.48406 0 0
1:53 am 01:53 Cloudy 24 -4.4 19 -7.2 81 81 Calm 30.28 1026 9 14.48406 0 0
2:53 am 02:53 Cloudy 24 -4.4 19 -7.2 81 81 Calm 30.28 1025 9 14.48406 0 0
3:53 am 03:53 Cloudy 24 -4.4 19 -7.2 81 81 Calm 30.26 1025 8 12.87472 0 0
4:53 am 04:53 Cloudy 25 -3.9 20 -6.7 81 81 undefined N/A 30.24 1024 9 14.48406 0 0
5:53 am 05:53 Cloudy 25 -3.9 20 -6.7 81 81 S 5 7 30.23 1024 10 16.0934 0 0
6:53 am 06:53 Cloudy 23 -5 19 -7.2 85 85 S 3 6 30.23 1024 10 16.0934 0 0
7:53 am 07:53 Mostly Cloudy 22 -5.6 19 -7.2 89 89 Calm 30.23 1024 8 12.87472 0 0
8:53 am 08:53 Partly Cloudy with Mist and Fog 22 -5.6 20 -6.7 92 92 Calm 30.23 1024 6 9.65604 0 0
9:53 am 09:53 Sunny 28 -2.2 21 -6.1 75 75 W 5 7 30.24 1024 8 12.87472 0 0
10:53 am 10:53 Partly Cloudy 30 -1.1 16 -8.9 56 56 WSW 10 17 30.24 1024 10 16.0934 0 0
11:53 am 11:53 Sunny 33 0.6 12 -11.1 42 42 WSW 9 15 30.21 1023 10 16.0934 0 0
12:53 pm 12:53 Sunny 36 2.2 12 -11.1 37 37 SW 8 13 30.17 1022 10 16.0934 0 0
1:53 pm 13:53 Sunny 38 3.3 10 -12.2 31 31 W 10 17 30.14 1021 10 16.0934 0 0
2:53 pm 14:53 Sunny 39 3.9 13 -10.6 34 34 W 9 15 30.12 1020 10 16.0934 0 0
3:53 pm 15:53 Sunny 39 3.9 13 -10.6 34 34 WSW 9 15 30.11 1020 10 16.0934 0 0
4:53 pm 16:53 Sunny 38 3.3 13 -10.6 36 36 WSW 9 15 30.11 1020 10 16.0934 0 0
5:53 pm 17:53 Clear 33 0.6 15 -9.4 47 47 SW 6 9 30.13 1020 10 16.0934 0 0
6:53 pm 18:53 Clear 28 -2.2 15 -9.4 58 58 SSW 6 9 30.14 1021 10 16.0934 0 0
7:53 pm 19:53 Clear 27 -2.8 20 -6.7 75 75 SW 5 7 30.14 1021 10 16.0934 0 0
8:53 pm 20:53 Clear 27 -2.8 19 -7.2 72 72 S 9 15 30.14 1021 10 16.0934 0 0
9:53 pm 21:53 Clear 28 -2.2 20 -6.7 72 72 SSW 8 13 30.15 1021 10 16.0934 0 0
10:53 pm 22:53 Clear 26 -3.3 20 -6.7 78 78 SSW 9 15 30.16 1021 10 16.0934 0 0
11:53 pm 23:53 Clear 26 -3.3 21 -6.1 81 81 SSW 8 13 30.16 1021 10 16.0934 0 0

Powered by AerisWeather